Current weather by "City, St" or "zip code"  
 

Current Conditions: Oxnard, Oxnard Airport, CA

Mostly Cloudy


65.0 F

Last Updated on Oct 24 2020, 5:51 pm PDT
Humidity: 73%
Wind Speed: W 10.4 mph
Barometer 29.92 in
Dewpoint: 55.9 F
Visibility: 10.00 mi
Precip: --
Heat Index: NA
Wind Chill: NA
Current conditions at:

Oxnard, Oxnard Airport, CA (KOXR)

Lat: 34.20056 Lon: 119.20306

Local Radar Image active severe weather and emergency alerts image image weather storm and storm spotter reports image weather observation monitoring service image
Local
Radar
Active
Alerts
Storm Reports Obs
Monitoring

Sign-up For Email & Text Message Weather Alert Notification Services



Advertise Here

Observation History for Oxnard, Oxnard Airport, CA


Time Wind
(mph)
Vis
(mi)
Weather Precip (in) Temperature (F) Relative
Humidity
Wind
Chill
(F)
Heat
Index
(F)
Pressure
Air Dwpt altimeter
(in)
sea level
(mb)
Rmks
5:51 pm PDT W 10.4 10.00 Mostly Cloudy -- 65.0 55.9 73% NA NA 29.92 1013.0
4:51 pm PDT W 11.5 10.00 Fair -- 66.0 55.9 70% NA NA 29.93 1013.3
3:51 pm PDT W 11.5 10.00 Mostly Cloudy -- 67.0 57.9 73% NA NA 29.93 1013.5
2:51 pm PDT W 11.5 10.00 Overcast -- 66.0 59.0 78% NA NA 29.94 1013.9
1:51 pm PDT W 6.9 10.00 Overcast -- 67.0 57.0 71% NA NA 29.96 1014.5
12:51 pm PDT W 6.9 10.00 Overcast -- 67.0 57.9 73% NA NA 29.98 1015.2
11:51 am PDT W 8.1 10.00 Overcast -- 67.0 59.0 76% NA NA 30.00 1015.8
10:51 am PDT N 0.0 10.00 Overcast -- 66.0 57.9 75% NA NA 30.01 1016.2
9:51 am PDT N 0.0 10.00 Overcast -- 65.0 57.0 76% NA NA 30.02 1016.4
8:51 am PDT N 0.0 10.00 Overcast -- 63.0 57.0 81% NA NA 30.02 1016.4
7:51 am PDT NE 4.6 10.00 Overcast -- 62.0 57.0 84% 62 NA 30.00 1015.6
6:51 am PDT NE 5.8 10.00 Overcast -- 61.0 57.0 87% 61 NA 30.00 1015.6
5:51 am PDT NE 4.6 10.00 Overcast -- 61.0 55.9 84% 61 NA 30.00 1015.8
4:51 am PDT NE 3.5 10.00 Overcast -- 60.0 55.9 86% NA NA 29.99 1015.3
3:51 am PDT NE 4.6 10.00 Overcast -- 61.0 55.9 84% 61 NA 29.98 1015.2
2:51 am PDT NE 4.6 10.00 Overcast -- 61.0 57.0 87% 61 NA 29.99 1015.3
1:51 am PDT N 0.0 10.00 Overcast -- 61.0 57.0 87% NA NA 30.00 1015.8
12:51 am PDT N 0.0 10.00 Overcast -- 61.0 57.0 87% NA NA 29.99 1015.6
11:51 pm PDT E 4.6 10.00 Fair -- 62.0 57.0 84% 62 NA 30.00 1015.7
10:51 pm PDT SE 3.5 10.00 Mostly Cloudy -- 64.0 57.9 81% NA NA 30.00 1015.9
9:51 pm PDT N 0.0 10.00 Mostly Cloudy -- 64.0 57.0 78% NA NA 29.99 1015.6
8:51 pm PDT N 0.0 10.00 Mostly Cloudy -- 64.0 57.0 78% NA NA 29.98 1015.3
7:51 pm PDT N 0.0 10.00 Partly Cloudy -- 64.0 57.0 78% NA NA 29.98 1015.2

Regional Weather Observation


Camarillo, Camarillo Airport, CA (KCMA)

Mostly Cloudy
68.0 F

Point Mugu, Naval Air Warfare Center, CA (KNTD)

Mostly Cloudy
64.0 F

Santa Barbara, Santa Barbara Municipal Airport, CA (KSBA)

Overcast
65.0 F

Sandberg, CA (KSDB)

Fair
53.0 F

Santa Ynez, Santa Ynez Airport, CA (KIZA)

Overcast
63.0 F

Los Angeles, Whiteman Airport, CA (KWHP)

Overcast
66.0 F